DW0708 Weather Reports


time (UTC)temp
C
wind
direction
speed
KPH
gust
KPH
rain 1hr
cm
rain 24hr
cm
rain mn
cm
humidity
%
barometer
mb
20260505195012 28 144 6.4 30.6 0.00 0.00 0.00 72 1008.6
20260505194528 28 227 4.8 30.6 0.00 0.00 0.00 73 1008.8
20260505194012 28 195 6.4 30.6 0.00 0.00 0.00 72 1008.8
20260505193511 28 134 4.8 24.1 0.00 0.00 0.00 74 1008.8
20260505193028 28 124 4.8 30.6 0.00 0.00 0.00 74 1008.9
20260505192511 28 149 3.2 30.6 0.00 0.00 0.00 75 1008.8
20260505192011 28 151 8.0 30.6 0.00 0.00 0.00 75 1008.7
20260505191529 28 179 0.0 16.1 0.00 0.00 0.00 75 1008.9
20260505191013 27 0 3.2 16.1 0.00 0.00 0.00 75 1008.9
20260505190512 27 338 1.6 19.3 0.00 0.00 0.00 76 1009.0
20260505190039 27 202 4.8 19.3 0.00 0.00 0.00 76 1008.9
20260505185516 27 0 4.8 20.9 0.00 0.00 0.00 77 1008.8
20260505185015 27 184 3.2 20.9 0.00 0.00 0.00 79 1009.0
20260505184531 27 194 1.6 16.1 0.00 0.00 0.00 79 1009.1
20260505184013 27 0 4.8 17.7 0.00 0.00 0.00 79 1009.1
20260505183510 26 264 4.8 20.9 0.00 0.00 0.00 80 1009.2
20260505183030 26 148 4.8 20.9 0.00 0.00 0.00 81 1009.3
20260505182510 26 0 0.0 19.3 0.00 0.00 0.00 81 1009.2
20260505182013 26 138 4.8 19.3 0.00 0.00 0.00 81 1009.2
20260505181532 26 221 3.2 9.7 0.00 0.00 0.00 81 1009.3
20260505181011 26 248 1.6 17.7 0.00 0.00 0.00 81 1009.4
20260505180513 26 0 4.8 17.7 0.00 0.00 0.00 82 1009.4
20260505180037 26 0 1.6 17.7 0.00 0.00 0.00 81 1009.4
20260505175514 26 259 4.8 17.7 0.00 0.00 0.00 81 1009.5
20260505175013 26 302 3.2 14.5 0.00 0.00 0.00 82 1009.5
20260505174529 26 258 3.2 12.9 0.00 0.00 0.00 82 1009.5
20260505174013 26 232 1.6 17.7 0.00 0.00 0.00 82 1009.5
20260505173509 26 135 3.2 17.7 0.00 0.00 0.00 81 1009.6
20260505173029 26 169 1.6 14.5 0.00 0.00 0.00 82 1009.6
20260505172511 26 191 3.2 14.5 0.00 0.00 0.00 82 1009.6
20260505172011 26 186 1.6 19.3 0.00 0.00 0.00 82 1009.6
20260505171528 26 0 3.2 19.3 0.00 0.00 0.00 82 1009.7
20260505171013 26 150 3.2 19.3 0.00 0.00 0.00 83 1009.6
20260505170514 25 210 3.2 16.1 0.00 0.00 0.00 83 1009.7
20260505170027 25 0 1.6 16.1 0.00 0.00 0.00 84 1009.7
20260505165512 25 309 1.6 12.9 0.00 0.00 0.00 84 1009.8
20260505165012 25 195 1.6 12.9 0.00 0.00 0.00 84 1009.8
20260505164536 25 0 1.6 11.3 0.00 0.00 0.00 84 1009.9
20260505164011 25 0 0.0 12.9 0.00 0.00 0.00 84 1009.9
20260505163512 25 0 3.2 12.9 0.00 0.00 0.00 84 1009.9
20260505163034 25 174 3.2 11.3 0.00 0.00 0.00 84 1010.0
20260505162512 25 210 4.8 11.3 0.00 0.00 0.00 84 1009.9
20260505162014 25 293 3.2 11.3 0.00 0.00 0.00 84 1009.9
20260505161528 25 206 1.6 9.7 0.00 0.00 0.00 85 1009.8
20260505161011 25 0 0.0 16.1 0.00 0.00 0.00 85 1009.8
20260505160512 24 167 3.2 16.1 0.00 0.00 0.00 85 1009.7
20260505153034 24 240 3.2 20.9 0.00 0.00 0.00 84 1009.5
20260505152512 24 0 1.6 12.9 0.00 0.00 0.00 84 1009.5
20260505152013 24 170 3.2 17.7 0.00 0.00 0.00 84 1009.5
20260505151530 24 0 4.8 29.0 0.00 0.00 0.00 84 1009.6
20260505151013 24 236 8.0 29.0 0.00 0.00 0.00 84 1009.4
20260505150511 24 138 6.4 22.5 0.00 0.00 0.00 84 1009.5
20260505140510 23 149 4.8 14.5 0.00 0.00 0.00 89 1009.3
20260505125011 21 122 1.6 9.7 0.00 0.00 0.00 91 1009.3
20260505124529 21 217 1.6 9.7 0.00 0.00 0.00 91 1009.0
20260505124013 21 174 1.6 9.7 0.00 0.00 0.00 91 1008.8
20260505123509 21 85 0.0 8.0 0.00 0.00 0.00 91 1008.7
20260505123035 21 107 1.6 8.0 0.00 0.00 0.00 91 1008.8
20260505122510 21 133 1.6 6.4 0.00 0.00 0.00 91 1009.1
20260505122014 21 129 1.6 4.8 0.00 0.00 0.00 91 1009.1
20260505121532 21 0 0.0 4.8 0.00 0.00 0.00 91 1009.1
20260505121013 21 0 0.0 4.8 0.00 0.00 0.00 90 1009.2
20260505120512 21 147 0.0 8.0 0.00 0.00 0.00 90 1008.9
20260505120039 21 0 0.0 11.3 0.00 0.00 0.00 90 1008.9
20260505115512 21 103 1.6 11.3 0.00 0.00 0.00 90 1008.9
20260505115009 21 0 0.0 8.0 0.00 0.00 0.00 90 1008.8
20260505114527 21 185 1.6 8.0 0.00 0.00 0.00 90 1008.6
20260505114012 21 148 0.0 4.8 0.00 0.00 0.00 90 1008.5
20260505113511 21 0 0.0 8.0 0.00 0.00 0.00 90 1008.7
20260505113029 21 177 1.6 8.0 0.00 0.00 0.00 90 1009.0
20260505112511 21 0 0.0 8.0 0.00 0.00 0.00 90 1008.9
20260505112011 21 0 1.6 11.3 0.00 0.00 0.00 90 1008.9
20260505111532 21 139 0.0 11.3 0.00 0.00 0.00 90 1009.0
20260505111011 21 224 1.6 11.3 0.00 0.00 0.00 90 1008.8
20260505110511 21 0 1.6 9.7 0.00 0.00 0.00 90 1008.9
20260505101014 21 146 0.0 9.7 0.00 0.00 0.00 89 1008.7
20260505100511 21 146 1.6 9.7 0.00 0.00 0.00 89 1008.8
20260505095511 21 238 0.0 4.8 0.00 0.00 0.00 89 1008.9
20260505095012 21 230 0.0 9.7 0.00 0.00 0.00 89 1009.0
20260505094531 21 0 0.0 9.7 0.00 0.00 0.00 89 1008.9
20260505094012 21 0 0.0 11.3 0.00 0.00 0.00 89 1008.9
20260505093512 21 155 1.6 11.3 0.00 0.00 0.00 89 1008.9
20260505093031 21 136 1.6 11.3 0.00 0.00 0.00 89 1008.9
20260505092510 21 0 0.0 8.0 0.00 0.00 0.00 89 1008.9
20260505092014 21 0 0.0 8.0 0.00 0.00 0.00 89 1009.0
20260505091532 21 169 0.0 8.0 0.00 0.00 0.00 88 1009.1
20260505091011 21 0 1.6 9.7 0.00 0.00 0.00 88 1009.1
20260505090509 21 0 0.0 9.7 0.00 0.00 0.00 88 1009.2
20260505090027 21 0 1.6 6.4 0.00 0.00 0.00 88 1009.2
20260505085511 21 126 1.6 9.7 0.00 0.00 0.00 88 1009.2
20260505085009 21 184 1.6 9.7 0.00 0.00 0.00 88 1009.2
20260505084543 21 141 0.0 6.4 0.00 0.00 0.00 88 1009.3
20260505084012 21 160 0.0 6.4 0.00 0.00 0.00 88 1009.1
20260505083511 21 0 1.6 8.0 0.00 0.00 0.00 88 1009.2
20260505083046 21 0 1.6 9.7 0.00 0.00 0.00 88 1009.2
20260505082510 21 101 0.0 9.7 0.00 0.00 0.00 88 1009.4
20260505082013 21 150 1.6 9.7 0.00 0.00 0.00 87 1009.4
20260505081541 21 167 1.6 8.0 0.00 0.00 0.00 87 1009.4
20260505081014 21 215 1.6 8.0 0.00 0.00 0.00 87 1009.5
20260505080512 21 140 0.0 8.0 0.00 0.00 0.00 87 1009.4
20260505080039 21 97 0.0 6.4 0.00 0.00 0.00 87 1009.5
20260505075514 21 0 1.6 6.4 0.00 0.00 0.00 87 1009.6
20260505075011 21 198 0.0 6.4 0.00 0.00 0.00 86 1009.6
20260505074527 21 0 1.6 6.4 0.00 0.00 0.00 86 1009.6
20260505074012 21 0 0.0 6.4 0.00 0.00 0.00 86 1009.6
20260505073512 21 0 1.6 6.4 0.00 0.00 0.00 86 1009.7
20260505073036 21 0 0.0 4.8 0.00 0.00 0.00 86 1009.7
20260505072513 21 0 0.0 4.8 0.00 0.00 0.00 86 1009.7
20260505072011 21 0 0.0 4.8 0.00 0.00 0.00 85 1009.8
20260505071541 21 0 0.0 6.4 0.00 0.00 0.00 85 1009.9
20260505071009 21 160 1.6 9.7 0.00 0.00 0.00 85 1010.0
20260505070515 21 136 0.0 9.7 0.00 0.00 0.00 85 1010.0
20260505070039 21 167 1.6 9.7 0.00 0.00 0.00 85 1009.9
20260505065511 21 189 1.6 9.7 0.00 0.00 0.00 85 1010.0
20260505065011 21 0 1.6 9.7 0.00 0.00 0.00 85 1010.1
20260505064528 21 0 1.6 9.7 0.00 0.00 0.00 85 1010.2
20260505064011 21 169 3.2 9.7 0.00 0.00 0.00 85 1010.1
20260505063513 21 0 0.0 9.7 0.00 0.00 0.00 85 1010.1
20260505063037 21 0 1.6 9.7 0.00 0.00 0.00 84 1010.2
20260505062509 21 0 0.0 11.3 0.00 0.00 0.00 84 1010.4
20260505062013 21 148 0.0 11.3 0.00 0.00 0.00 84 1010.4
20260505061530 21 0 0.0 11.3 0.00 0.00 0.00 84 1010.2
20260505061010 21 0 3.2 11.3 0.00 0.00 0.00 84 1010.3
20260505060514 21 161 1.6 16.1 0.00 0.00 0.00 84 1010.4
20260505060050 21 183 1.6 16.1 0.00 0.00 0.00 83 1010.4
20260505055512 21 150 1.6 8.0 0.00 0.00 0.00 83 1010.4
20260505055014 21 205 1.6 9.7 0.00 0.00 0.00 83 1010.4
20260505054526 21 0 1.6 11.3 0.00 0.00 0.00 83 1010.5
20260505054017 21 0 0.0 11.3 0.00 0.00 0.00 82 1010.5
20260505053512 21 163 0.0 4.8 0.00 0.00 0.00 82 1010.6
20260505053027 21 0 0.0 4.8 0.00 0.00 0.00 82 1010.8
20260505052512 21 0 0.0 9.7 0.00 0.00 0.00 81 1010.7
20260505052012 21 0 0.0 9.7 0.00 0.00 0.00 81 1010.8
20260505051528 21 178 0.0 12.9 0.00 0.00 0.00 81 1010.8
20260505051010 21 290 0.0 12.9 0.00 0.00 0.00 81 1010.9
20260505050510 21 159 3.2 12.9 0.00 0.00 0.00 81 1010.8
20260505041537 22 233 1.6 17.7 0.00 0.00 0.00 79 1010.8
20260505041012 22 176 1.6 17.7 0.00 0.00 0.00 78 1010.8
20260505040513 22 216 3.2 14.5 0.00 0.00 0.00 78 1010.8
20260505040033 22 176 3.2 20.9 0.00 0.00 0.00 78 1010.8
20260505035509 22 202 1.6 20.9 0.00 0.00 0.00 77 1010.9
20260505035011 22 166 3.2 12.9 0.00 0.00 0.00 77 1011.0
20260505034529 22 77 4.8 12.9 0.00 0.00 0.00 77 1010.9
20260505034015 22 169 3.2 12.9 0.00 0.00 0.00 77 1010.9
20260505033513 22 60 1.6 17.7 0.00 0.00 0.00 77 1011.0
20260505033027 22 150 1.6 17.7 0.00 0.00 0.00 77 1011.0
20260505032511 22 0 1.6 16.1 0.00 0.00 0.00 76 1011.2
20260505032014 22 143 3.2 14.5 0.00 0.00 0.00 76 1011.2
20260505031526 22 0 1.6 11.3 0.00 0.00 0.00 75 1011.1
20260505031010 22 192 1.6 14.5 0.00 0.00 0.00 75 1011.1
20260505030509 22 228 1.6 16.1 0.00 0.00 0.00 76 1011.0
20260505030028 22 77 0.0 16.1 0.00 0.00 0.00 75 1011.1
20260505025518 22 163 3.2 14.5 0.00 0.00 0.00 75 1011.1
20260505025012 22 149 1.6 12.9 0.00 0.00 0.00 74 1010.9
20260505024527 23 178 3.2 14.5 0.00 0.00 0.00 74 1010.8
20260505024015 23 0 1.6 16.1 0.00 0.00 0.00 74 1010.7
20260505023512 23 96 3.2 16.1 0.00 0.00 0.00 74 1010.8
20260505023027 23 118 3.2 16.1 0.00 0.00 0.00 74 1010.8
20260505022510 23 179 3.2 16.1 0.00 0.00 0.00 74 1010.9
20260505022012 23 153 3.2 17.7 0.00 0.00 0.00 74 1010.9
20260505021530 23 93 3.2 17.7 0.00 0.00 0.00 74 1010.9
20260505021015 23 0 4.8 17.7 0.00 0.00 0.00 74 1010.9
20260505020513 23 0 3.2 14.5 0.00 0.00 0.00 74 1010.8
20260505020035 23 188 3.2 14.5 0.00 0.00 0.00 74 1010.8
20260505015514 23 189 1.6 19.3 0.00 0.00 0.00 74 1010.6
20260505015014 23 0 3.2 19.3 0.00 0.00 0.00 74 1010.7
20260505014538 23 115 3.2 12.9 0.00 0.00 0.00 74 1010.6
20260505014012 23 0 1.6 12.9 0.00 0.00 0.00 74 1010.6
20260505013513 23 115 3.2 12.9 0.00 0.00 0.00 73 1010.6
20260505013037 23 126 0.0 8.0 0.00 0.00 0.00 72 1010.4
20260505012514 23 0 0.0 11.3 0.00 0.00 0.00 72 1010.4
20260505012011 23 0 1.6 20.9 0.00 0.00 0.00 71 1010.3
20260505011535 23 162 3.2 20.9 0.00 0.00 0.00 71 1010.2
20260505011015 23 127 1.6 16.1 0.00 0.00 0.00 70 1010.3
20260505010513 24 148 0.0 4.8 0.00 0.00 0.00 70 1010.4
20260505010030 24 150 0.0 11.3 0.00 0.00 0.00 70 1010.4
20260505005514 24 170 1.6 11.3 0.00 0.00 0.00 69 1010.4
20260505005012 24 0 0.0 9.7 0.00 0.00 0.00 69 1010.4
20260505004540 25 94 0.0 9.7 0.00 0.00 0.00 68 1010.3
20260505004015 25 203 1.6 9.7 0.00 0.00 0.00 68 1010.3
20260505003513 25 130 1.6 9.7 0.00 0.00 0.00 68 1010.2
20260505003048 25 0 0.0 9.7 0.00 0.00 0.00 68 1010.2
20260505002513 25 199 3.2 9.7 0.00 0.00 0.00 67 1010.3
20260505002012 25 175 0.0 17.7 0.00 0.00 0.00 67 1010.4
20260505001530 25 192 1.6 17.7 0.00 0.00 0.00 66 1010.3
20260505001010 25 169 3.2 17.7 0.00 0.00 0.00 66 1010.3
20260505000514 25 158 0.0 17.7 0.00 0.00 0.00 66 1010.3
20260505000034 25 174 3.2 17.7 0.00 0.00 0.00 66 1010.4
20260504235513 25 0 3.2 11.3 0.00 0.00 0.00 66 1010.4
20260504235012 25 185 0.0 9.7 0.00 0.00 0.00 65 1010.6
20260504234530 25 0 1.6 11.3 0.00 0.00 0.00 65 1010.5
20260504234016 26 181 4.8 11.3 0.00 0.00 0.00 65 1010.5
20260504233513 26 0 1.6 14.5 0.00 0.00 0.00 65 1010.4
20260504233029 26 182 3.2 14.5 0.00 0.00 0.00 64 1010.5
20260504232515 26 0 3.2 14.5 0.00 0.00 0.00 63 1010.5
20260504232010 26 115 4.8 14.5 0.00 0.00 0.00 63 1010.6
20260504231530 26 345 1.6 11.3 0.00 0.00 0.00 64 1010.6
20260504231014 26 0 1.6 22.5 0.00 0.00 0.00 64 1010.5
20260504230514 26 163 3.2 22.5 0.00 0.00 0.00 62 1010.8
20260504230027 26 249 1.6 19.3 0.00 0.00 0.00 62 1010.9
20260504225512 26 189 6.4 19.3 0.00 0.00 0.00 60 1010.8
20260504225011 26 203 4.8 16.1 0.00 0.00 0.00 61 1010.8
20260504224528 26 0 0.0 9.7 0.00 0.00 0.00 64 1010.9
20260504224010 26 0 0.0 9.7 0.00 0.00 0.00 62 1010.8
20260504223511 26 202 3.2 16.1 0.00 0.00 0.00 60 1011.0
20260504223029 26 0 3.2 16.1 0.00 0.00 0.00 60 1011.0
20260504222512 26 208 1.6 19.3 0.00 0.00 0.00 60 1011.0
20260504222009 27 0 4.8 19.3 0.00 0.00 0.00 58 1011.0
20260504221526 27 0 1.6 14.5 0.00 0.00 0.00 60 1011.1
20260504221011 27 118 3.2 14.5 0.00 0.00 0.00 60 1011.2
20260504220511 27 0 3.2 12.9 0.00 0.00 0.00 59 1011.2
20260504220031 27 264 4.8 14.5 0.00 0.00 0.00 58 1011.2
20260504215510 27 176 1.6 14.5 0.00 0.00 0.00 59 1011.2
20260504215008 27 0 4.8 14.5 0.00 0.00 0.00 56 1011.2
20260504214526 27 0 1.6 14.5 0.00 0.00 0.00 56 1011.3
20260504214013 27 229 3.2 14.5 0.00 0.00 0.00 55 1011.3
20260504213511 27 124 1.6 16.1 0.00 0.00 0.00 54 1011.4
20260504213029 28 198 1.6 16.1 0.00 0.00 0.00 53 1011.4
20260504212509 28 186 4.8 16.1 0.00 0.00 0.00 52 1011.6
20260504212012 28 263 4.8 19.3 0.00 0.00 0.00 53 1011.6
20260504211536 28 182 3.2 19.3 0.00 0.00 0.00 54 1011.6
20260504211011 28 217 3.2 19.3 0.00 0.00 0.00 52 1011.7
20260504210511 28 162 4.8 14.5 0.00 0.00 0.00 51 1011.8
20260504210026 29 0 0.0 14.5 0.00 0.00 0.00 52 1011.9
20260504205007 29 0 3.2 12.9 0.00 0.00 0.00 52 1011.9
20260504204532 28 155 3.2 14.5 0.00 0.00 0.00 52 1012.2
20260504204011 28 0 4.8 14.5 0.00 0.00 0.00 51 1012.3
20260504203514 28 248 4.8 12.9 0.00 0.00 0.00 52 1012.4
20260504203026 28 129 4.8 12.9 0.00 0.00 0.00 51 1012.4
20260504202509 28 0 1.6 9.7 0.00 0.00 0.00 53 1012.5
20260504202011 28 281 1.6 17.7 0.00 0.00 0.00 53 1012.7
20260504201529 28 203 3.2 17.7 0.00 0.00 0.00 52 1012.9
20260504201009 28 186 3.2 16.1 0.00 0.00 0.00 53 1012.9
20260504200511 28 185 1.6 16.1 0.00 0.00 0.00 51 1013.0
20260504200029 28 166 1.6 12.9 0.00 0.00 0.00 52 1013.1
20260504195522 28 156 0.0 12.9 0.00 0.00 0.00 53 1013.2